Location: Newark
(41.0400°S, 62.7845°W)
Time: 08:17:46
(UTC+00:00)

ISS - Pass Details

Date: 29 October 2021
Orbit: 417 x 423 km, 51.6° (Epoch: 29 November)

Event Time Altitude Azimuth Distance (km) Brightness Sun altitude
Rises 00:28:18 0° 230° (SW) 2,417 1.9 -17.6°
Reaches altitude 10° 00:30:34 10° 220° (SW) 1,547 0.3 -17.9°
Maximum altitude 00:33:45 32° 154° (SSE) 767 -2.4 -18.4°
Enters shadow 00:34:36 28° 124° (SE) 846 -2.4 -18.5°
